Time,TemperatureF,DewpointF,PressureIn,WindDirection,WindDirectionDegrees,WindSpeedMPH,WindSpeedGustMPH,Humidity,HourlyPrecipIn,Conditions,Clouds,dailyrainin,SoftwareType,DateUTC
2013-01-22 00:05:00,27.0,27.0,29.84,SSE,150,0.0,20.0,99,0.00,,,0.00,,2013-01-22 05:05:00,
2013-01-22 00:12:00,27.0,27.0,29.84,SSE,150,0.0,20.0,99,0.00,,,0.00,,2013-01-22 05:12:00,
2013-01-22 00:23:00,26.0,26.0,29.82,SSE,150,0.0,20.0,99,0.00,,,0.00,,2013-01-22 05:23:00,
2013-01-22 00:33:00,26.0,26.0,29.82,SSE,150,0.0,20.0,99,0.00,,,0.00,,2013-01-22 05:33:00,
2013-01-22 00:43:00,26.0,26.0,29.82,SSE,150,0.0,20.0,99,0.00,,,0.00,,2013-01-22 05:43:00,
2013-01-22 00:52:00,26.0,26.0,29.80,SSE,150,0.0,0.0,99,0.00,,,0.00,,2013-01-22 05:52:00,
2013-01-22 01:02:00,26.0,26.0,29.80,SSE,150,0.0,0.0,99,0.00,,,0.00,,2013-01-22 06:02:00,
2013-01-22 01:12:00,26.0,26.0,29.80,SSE,150,0.0,0.0,99,0.00,,,0.00,,2013-01-22 06:12:00,
2013-01-22 01:22:00,26.0,26.0,29.81,SSE,150,0.0,0.0,99,0.00,,,0.00,,2013-01-22 06:22:00,
2013-01-22 01:33:00,26.0,26.0,29.81,SSE,150,0.0,0.0,99,0.00,,,0.00,,2013-01-22 06:33:00,
2013-01-22 01:43:00,26.0,26.0,29.81,SSE,150,0.0,0.0,99,0.00,,,0.00,,2013-01-22 06:43:00,
2013-01-22 01:52:00,25.0,25.0,29.82,SSE,150,0.0,0.0,99,0.00,,,0.00,,2013-01-22 06:52:00,
2013-01-22 02:02:00,25.0,25.0,29.82,SSE,150,0.0,0.0,99,0.00,,,0.00,,2013-01-22 07:02:00,
2013-01-22 02:12:00,25.0,25.0,29.82,SSE,150,0.0,0.0,99,0.00,,,0.00,,2013-01-22 07:12:00,
2013-01-22 02:22:00,25.0,25.0,29.81,SSE,150,0.0,0.0,99,0.00,,,0.00,,2013-01-22 07:22:00,
2013-01-22 02:33:00,25.0,25.0,29.81,SSE,150,0.0,0.0,99,0.00,,,0.00,,2013-01-22 07:33:00,
2013-01-22 02:42:00,25.0,25.0,29.81,SSE,150,0.0,0.0,99,0.00,,,0.00,,2013-01-22 07:42:00,
2013-01-22 02:52:00,24.0,24.0,29.80,SSE,150,0.0,0.0,99,0.00,,,0.00,,2013-01-22 07:52:00,
2013-01-22 03:02:00,24.0,24.0,29.80,SSE,150,0.0,0.0,99,0.00,,,0.00,,2013-01-22 08:02:00,
2013-01-22 03:12:00,24.0,24.0,29.80,SSE,150,0.0,0.0,99,0.00,,,0.00,,2013-01-22 08:12:00,
2013-01-22 03:22:00,23.0,23.0,29.81,SSE,150,0.0,0.0,99,0.00,,,0.00,,2013-01-22 08:22:00,
2013-01-22 03:33:00,23.0,23.0,29.81,SSE,150,0.0,0.0,99,0.00,,,0.00,,2013-01-22 08:33:00,
2013-01-22 03:43:00,23.0,23.0,29.81,SSE,150,0.0,0.0,99,0.00,,,0.00,,2013-01-22 08:43:00,
2013-01-22 03:52:00,23.0,23.0,29.80,SSE,150,0.0,0.0,99,0.00,,,0.00,,2013-01-22 08:52:00,
2013-01-22 04:02:00,23.0,23.0,29.80,SSE,150,0.0,0.0,99,0.00,,,0.00,,2013-01-22 09:02:00,
2013-01-22 04:12:00,23.0,23.0,29.80,SSE,150,0.0,0.0,99,0.00,,,0.00,,2013-01-22 09:12:00,
2013-01-22 04:22:00,22.0,22.0,29.81,SSE,150,0.0,0.0,99,0.00,,,0.00,,2013-01-22 09:22:00,
2013-01-22 04:33:00,22.0,22.0,29.81,SSE,150,0.0,0.0,99,0.00,,,0.00,,2013-01-22 09:33:00,
2013-01-22 04:43:00,22.0,22.0,29.81,SSE,150,0.0,0.0,99,0.00,,,0.00,,2013-01-22 09:43:00,
2013-01-22 04:52:00,22.0,22.0,29.81,SSE,150,0.0,0.0,99,0.00,,,0.00,,2013-01-22 09:52:00,
2013-01-22 05:03:00,22.0,22.0,29.81,SSE,150,0.0,0.0,99,0.00,,,0.00,,2013-01-22 10:03:00,
2013-01-22 05:12:00,22.0,22.0,29.81,SSE,150,0.0,0.0,99,0.00,,,0.00,,2013-01-22 10:12:00,
2013-01-22 05:22:00,21.0,21.0,29.82,NNW,344,0.0,5.0,99,0.00,,,0.00,,2013-01-22 10:22:00,
2013-01-22 05:33:00,21.0,21.0,29.82,NNW,344,0.0,5.0,99,0.00,,,0.00,,2013-01-22 10:33:00,
2013-01-22 05:42:00,21.0,21.0,29.82,NNW,344,0.0,5.0,99,0.00,,,0.00,,2013-01-22 10:42:00,
2013-01-22 05:52:00,21.0,21.0,29.84,NW,322,0.0,6.0,99,0.00,,,0.00,,2013-01-22 10:52:00,
2013-01-22 06:02:00,21.0,21.0,29.84,NW,322,0.0,6.0,99,0.00,,,0.00,,2013-01-22 11:02:00,
2013-01-22 06:12:00,21.0,21.0,29.84,NW,322,0.0,6.0,99,0.00,,,0.00,,2013-01-22 11:12:00,
2013-01-22 06:22:00,21.0,21.0,29.85,NW,308,0.0,8.0,99,0.00,,,0.00,,2013-01-22 11:22:00,
2013-01-22 06:33:00,21.0,21.0,29.85,NW,308,0.0,8.0,99,0.00,,,0.00,,2013-01-22 11:33:00,
2013-01-22 06:43:00,21.0,21.0,29.85,NW,308,0.0,8.0,99,0.00,,,0.00,,2013-01-22 11:43:00,
2013-01-22 06:53:00,20.0,20.0,29.88,NW,313,3.0,8.0,99,0.00,,,0.00,,2013-01-22 11:53:00,
2013-01-22 07:04:00,20.0,20.0,29.88,NW,313,3.0,8.0,99,0.00,,,0.00,,2013-01-22 12:04:00,
2013-01-22 07:13:00,20.0,20.0,29.88,NW,313,3.0,8.0,99,0.00,,,0.00,,2013-01-22 12:13:00,
2013-01-22 07:23:00,20.0,20.0,29.89,NW,320,1.0,9.0,99,0.00,,,0.00,,2013-01-22 12:23:00,
2013-01-22 07:33:00,20.0,20.0,29.89,NW,320,1.0,9.0,99,0.00,,,0.00,,2013-01-22 12:33:00,
2013-01-22 07:43:00,20.0,20.0,29.89,NW,320,1.0,9.0,99,0.00,,,0.00,,2013-01-22 12:43:00,
2013-01-22 07:52:00,19.0,19.0,29.89,NW,318,7.0,17.0,98,0.00,,,0.00,,2013-01-22 12:52:00,
2013-01-22 08:04:00,19.0,19.0,29.89,NW,318,7.0,17.0,98,0.00,,,0.00,,2013-01-22 13:04:00,
2013-01-22 08:14:00,19.0,19.0,29.89,NW,318,7.0,17.0,98,0.00,,,0.00,,2013-01-22 13:14:00,
2013-01-22 08:23:00,19.0,18.0,29.91,NW,313,7.0,25.0,95,0.00,,,0.00,,2013-01-22 13:23:00,
2013-01-22 08:33:00,19.0,18.0,29.91,NW,313,7.0,25.0,95,0.00,,,0.00,,2013-01-22 13:33:00,
2013-01-22 08:43:00,19.0,18.0,29.91,NW,313,7.0,25.0,95,0.00,,,0.00,,2013-01-22 13:43:00,
2013-01-22 08:53:00,20.0,17.0,29.93,NW,306,11.0,25.0,88,0.00,,,0.00,,2013-01-22 13:53:00,
2013-01-22 09:03:00,20.0,17.0,29.93,NW,306,11.0,25.0,88,0.00,,,0.00,,2013-01-22 14:03:00,
2013-01-22 09:13:00,20.0,17.0,29.93,NW,306,11.0,25.0,88,0.00,,,0.00,,2013-01-22 14:13:00,
2013-01-22 09:23:00,20.0,15.0,29.94,NW,319,12.0,26.0,79,0.00,,,0.00,,2013-01-22 14:23:00,
2013-01-22 09:34:00,20.0,15.0,29.94,NW,319,12.0,26.0,79,0.00,,,0.00,,2013-01-22 14:34:00,
2013-01-22 09:44:00,20.0,15.0,29.94,NW,319,12.0,26.0,79,0.00,,,0.00,,2013-01-22 14:44:00,
2013-01-22 09:53:00,21.0,14.0,29.94,WNW,289,3.0,29.0,73,0.00,,,0.00,,2013-01-22 14:53:00,
2013-01-22 10:04:00,21.0,14.0,29.94,WNW,289,3.0,29.0,73,0.00,,,0.00,,2013-01-22 15:04:00,
2013-01-22 10:13:00,21.0,14.0,29.94,WNW,289,3.0,29.0,73,0.00,,,0.00,,2013-01-22 15:13:00,
2013-01-22 10:24:00,21.0,12.0,29.95,NW,326,11.0,29.0,67,0.00,,,0.00,,2013-01-22 15:24:00,
2013-01-22 10:34:00,21.0,12.0,29.95,NW,326,11.0,29.0,67,0.00,,,0.00,,2013-01-22 15:34:00,
2013-01-22 10:43:00,21.0,12.0,29.95,NW,326,11.0,29.0,67,0.00,,,0.00,,2013-01-22 15:43:00,
2013-01-22 10:52:00,21.0,11.0,29.96,NW,323,14.0,29.0,66,0.00,,,0.00,,2013-01-22 15:52:00,
2013-01-22 11:04:00,21.0,11.0,29.96,NW,323,14.0,29.0,66,0.00,,,0.00,,2013-01-22 16:04:00,
2013-01-22 11:13:00,21.0,11.0,29.96,NW,323,14.0,29.0,66,0.00,,,0.00,,2013-01-22 16:13:00,
2013-01-22 11:23:00,22.0,9.0,29.95,NW,316,11.0,29.0,56,0.00,,,0.00,,2013-01-22 16:23:00,
2013-01-22 11:33:00,22.0,9.0,29.95,NW,316,11.0,29.0,56,0.00,,,0.00,,2013-01-22 16:33:00,
2013-01-22 11:43:00,22.0,9.0,29.95,NW,316,11.0,29.0,56,0.00,,,0.00,,2013-01-22 16:43:00,
2013-01-22 11:53:00,22.0,9.0,29.95,NNW,333,6.0,30.0,57,0.00,,,0.00,,2013-01-22 16:53:00,
2013-01-22 12:04:00,22.0,9.0,29.95,NNW,333,6.0,30.0,57,0.00,,,0.00,,2013-01-22 17:04:00,
2013-01-22 12:13:00,22.0,9.0,29.95,NNW,333,6.0,30.0,57,0.00,,,0.00,,2013-01-22 17:13:00,
2013-01-22 12:23:00,23.0,9.0,29.94,WNW,298,12.0,30.0,55,0.01,,,0.01,,2013-01-22 17:23:00,
2013-01-22 12:34:00,23.0,9.0,29.94,WNW,298,12.0,30.0,55,0.01,,,0.01,,2013-01-22 17:34:00,
2013-01-22 12:44:00,23.0,9.0,29.94,WNW,298,12.0,30.0,55,0.01,,,0.01,,2013-01-22 17:44:00,
2013-01-22 12:53:00,24.0,10.0,29.93,NW,305,9.0,30.0,55,0.01,,,0.01,,2013-01-22 17:53:00,
2013-01-22 13:04:00,24.0,10.0,29.93,NW,305,9.0,30.0,55,0.01,,,0.01,,2013-01-22 18:04:00,
2013-01-22 13:13:00,24.0,10.0,29.93,NW,305,9.0,30.0,55,0.01,,,0.01,,2013-01-22 18:13:00,
2013-01-22 13:23:00,24.0,11.0,29.93,NW,323,4.0,30.0,56,0.01,,,0.02,,2013-01-22 18:23:00,
2013-01-22 13:34:00,24.0,11.0,29.93,NW,323,4.0,30.0,56,0.01,,,0.02,,2013-01-22 18:34:00,
2013-01-22 13:43:00,24.0,11.0,29.93,NW,323,4.0,30.0,56,0.01,,,0.02,,2013-01-22 18:43:00,
2013-01-22 13:53:00,24.0,9.0,29.93,West,260,8.0,30.0,52,0.02,,,0.03,,2013-01-22 18:53:00,
2013-01-22 14:04:00,24.0,9.0,29.93,West,260,8.0,30.0,52,0.02,,,0.03,,2013-01-22 19:04:00,
2013-01-22 14:14:00,24.0,9.0,29.93,West,260,8.0,30.0,52,0.02,,,0.03,,2013-01-22 19:14:00,
2013-01-22 14:23:00,23.0,7.0,29.94,NW,325,9.0,30.0,49,0.01,,,0.03,,2013-01-22 19:23:00,
2013-01-22 14:34:00,23.0,7.0,29.94,NW,325,9.0,30.0,49,0.01,,,0.03,,2013-01-22 19:34:00,
2013-01-22 14:43:00,23.0,7.0,29.94,NW,325,9.0,30.0,49,0.01,,,0.03,,2013-01-22 19:43:00,
2013-01-22 14:53:00,23.0,7.0,29.95,NW,307,10.0,30.0,49,0.00,,,0.03,,2013-01-22 19:53:00,
2013-01-22 15:03:00,23.0,7.0,29.95,NW,307,10.0,30.0,49,0.00,,,0.03,,2013-01-22 20:03:00,
2013-01-22 15:13:00,23.0,7.0,29.95,NW,307,10.0,30.0,49,0.00,,,0.03,,2013-01-22 20:13:00,
2013-01-22 15:23:00,22.0,7.0,29.96,WNW,302,6.0,30.0,51,0.00,,,0.03,,2013-01-22 20:23:00,
2013-01-22 15:33:00,22.0,7.0,29.96,WNW,302,6.0,30.0,51,0.00,,,0.03,,2013-01-22 20:33:00,
2013-01-22 15:43:00,22.0,7.0,29.96,WNW,302,6.0,30.0,51,0.00,,,0.03,,2013-01-22 20:43:00,
2013-01-22 15:53:00,22.0,6.0,29.96,West,268,5.0,30.0,49,0.00,,,0.03,,2013-01-22 20:53:00,
2013-01-22 16:04:00,22.0,6.0,29.96,West,268,5.0,30.0,49,0.00,,,0.03,,2013-01-22 21:04:00,
2013-01-22 16:13:00,22.0,6.0,29.96,West,268,5.0,30.0,49,0.00,,,0.03,,2013-01-22 21:13:00,
2013-01-22 16:23:00,21.0,5.0,29.97,NW,313,0.0,30.0,50,0.00,,,0.03,,2013-01-22 21:23:00,
2013-01-22 16:34:00,21.0,5.0,29.97,NW,313,0.0,30.0,50,0.00,,,0.03,,2013-01-22 21:34:00,
2013-01-22 16:43:00,21.0,5.0,29.97,NW,313,0.0,30.0,50,0.00,,,0.03,,2013-01-22 21:43:00,
2013-01-22 16:53:00,21.0,7.0,29.99,NNW,334,3.0,30.0,53,0.00,,,0.03,,2013-01-22 21:53:00,
2013-01-22 17:03:00,21.0,7.0,29.99,NNW,334,3.0,30.0,53,0.00,,,0.03,,2013-01-22 22:03:00,
2013-01-22 17:13:00,21.0,7.0,29.99,NNW,334,3.0,30.0,53,0.00,,,0.03,,2013-01-22 22:13:00,
2013-01-22 17:23:00,20.0,4.0,30.01,NW,306,9.0,30.0,48,0.00,,,0.03,,2013-01-22 22:23:00,
2013-01-22 17:33:00,20.0,4.0,30.01,NW,306,9.0,30.0,48,0.00,,,0.03,,2013-01-22 22:33:00,
2013-01-22 17:43:00,20.0,4.0,30.01,NW,306,9.0,30.0,48,0.00,,,0.03,,2013-01-22 22:43:00,
2013-01-22 17:53:00,20.0,4.0,30.03,NW,305,7.0,30.0,49,0.00,,,0.03,,2013-01-22 22:53:00,
2013-01-22 18:03:00,20.0,4.0,30.03,NW,305,7.0,30.0,49,0.00,,,0.03,,2013-01-22 23:03:00,
2013-01-22 18:12:00,20.0,4.0,30.03,NW,305,7.0,30.0,49,0.00,,,0.03,,2013-01-22 23:12:00,
2013-01-22 18:24:00,19.0,6.0,30.05,NW,306,5.0,30.0,56,0.00,,,0.03,,2013-01-22 23:24:00,
2013-01-22 18:33:00,19.0,6.0,30.05,NW,306,5.0,30.0,56,0.00,,,0.03,,2013-01-22 23:33:00,
2013-01-22 18:43:00,19.0,6.0,30.05,NW,306,5.0,30.0,56,0.00,,,0.03,,2013-01-22 23:43:00,
2013-01-22 18:53:00,18.0,6.0,30.07,West,281,0.0,30.0,59,0.00,,,0.03,,2013-01-22 23:53:00,
2013-01-22 19:03:00,18.0,6.0,30.07,West,281,0.0,30.0,59,0.00,,,0.03,,2013-01-23 00:03:00,
2013-01-22 19:13:00,18.0,6.0,30.07,West,281,0.0,30.0,59,0.00,,,0.03,,2013-01-23 00:13:00,
2013-01-22 19:23:00,18.0,6.0,30.08,NNW,335,0.0,30.0,60,0.00,,,0.03,,2013-01-23 00:23:00,
2013-01-22 19:33:00,18.0,6.0,30.08,NNW,335,0.0,30.0,60,0.00,,,0.03,,2013-01-23 00:33:00,
2013-01-22 19:43:00,18.0,6.0,30.08,NNW,335,0.0,30.0,60,0.00,,,0.03,,2013-01-23 00:43:00,
2013-01-22 19:52:00,17.0,6.0,30.09,NNW,335,0.0,30.0,62,0.00,,,0.03,,2013-01-23 00:52:00,
2013-01-22 20:03:00,17.0,6.0,30.09,NNW,335,0.0,30.0,62,0.00,,,0.03,,2013-01-23 01:03:00,
2013-01-22 20:13:00,17.0,6.0,30.09,NNW,335,0.0,30.0,62,0.00,,,0.03,,2013-01-23 01:13:00,
2013-01-22 20:23:00,16.0,6.0,30.09,North,357,0.0,30.0,65,0.00,,,0.03,,2013-01-23 01:23:00,
2013-01-22 20:33:00,16.0,6.0,30.09,North,357,0.0,30.0,65,0.00,,,0.03,,2013-01-23 01:33:00,
2013-01-22 20:43:00,16.0,6.0,30.09,North,357,0.0,30.0,65,0.00,,,0.03,,2013-01-23 01:43:00,
2013-01-22 20:52:00,16.0,7.0,30.10,North,357,0.0,30.0,68,0.00,,,0.03,,2013-01-23 01:52:00,
2013-01-22 21:03:00,16.0,7.0,30.10,North,357,0.0,30.0,68,0.00,,,0.03,,2013-01-23 02:03:00,
2013-01-22 21:13:00,16.0,7.0,30.10,North,357,0.0,30.0,68,0.00,,,0.03,,2013-01-23 02:13:00,
2013-01-22 21:23:00,15.0,7.0,30.11,North,357,0.0,30.0,71,0.00,,,0.03,,2013-01-23 02:23:00,
2013-01-22 21:33:00,15.0,7.0,30.11,North,357,0.0,30.0,71,0.00,,,0.03,,2013-01-23 02:33:00,
2013-01-22 21:43:00,15.0,7.0,30.11,North,357,0.0,30.0,71,0.00,,,0.03,,2013-01-23 02:43:00,
2013-01-22 21:53:00,14.0,7.0,30.12,North,357,0.0,30.0,74,0.00,,,0.03,,2013-01-23 02:53:00,
2013-01-22 22:03:00,14.0,7.0,30.12,North,357,0.0,30.0,74,0.00,,,0.03,,2013-01-23 03:03:00,
2013-01-22 22:13:00,14.0,7.0,30.12,North,357,0.0,30.0,74,0.00,,,0.03,,2013-01-23 03:13:00,
2013-01-22 22:23:00,14.0,7.0,30.13,NW,322,0.0,30.0,74,0.00,,,0.03,,2013-01-23 03:23:00,
2013-01-22 22:33:00,14.0,7.0,30.13,NW,322,0.0,30.0,74,0.00,,,0.03,,2013-01-23 03:33:00,
2013-01-22 22:43:00,14.0,7.0,30.13,NW,322,0.0,30.0,74,0.00,,,0.03,,2013-01-23 03:43:00,
2013-01-22 22:53:00,14.0,7.0,30.14,NNW,336,0.0,30.0,74,0.00,,,0.03,,2013-01-23 03:53:00,
2013-01-22 23:03:00,14.0,7.0,30.14,NNW,336,0.0,30.0,74,0.00,,,0.03,,2013-01-23 04:03:00,
2013-01-22 23:13:00,14.0,7.0,30.14,NNW,336,0.0,30.0,74,0.00,,,0.03,,2013-01-23 04:13:00,
2013-01-22 23:23:00,13.0,6.0,30.14,NW,319,1.0,30.0,74,0.00,,,0.03,,2013-01-23 04:23:00,
2013-01-22 23:33:00,13.0,6.0,30.14,NW,319,1.0,30.0,74,0.00,,,0.03,,2013-01-23 04:33:00,
2013-01-22 23:43:00,13.0,6.0,30.14,NW,319,1.0,30.0,74,0.00,,,0.03,,2013-01-23 04:43:00,
2013-01-22 23:52:00,13.0,6.0,30.14,NNW,328,0.0,30.0,73,0.00,,,0.03,,2013-01-23 04:52:00,